Coolangatta Observation History
Time Wind Speed Temp Pressure Rel. Hum Rain
18/02:30am SSW 12-17 kts 16.5°c 1016.8 hPa 79% 1.4mm
18/02:00am SSW 10-16 kts 16.3°c 1017.1 hPa 81% 1.4mm
18/01:30am SSW 12-17 kts 16.2°c 1017.3 hPa 82% 1.4mm
18/01:00am SSW 11-17 kts 16.2°c 1017.6 hPa 82% 1.4mm
18/12:30am SSW 11-19 kts 16.1°c 1017.9 hPa 83% 1.4mm
18/12:00am SSW 10-17 kts 15.8°c 1018.2 hPa 86% 1.4mm
Time Wind Speed Temp Pressure Rel. Hum Rain
17/11:30pm SSW 11-16 kts 16.0°c 1018.2 hPa 85% 1.4mm
17/11:00pm SSW 11-15 kts 15.8°c 1018.3 hPa 87% 1.4mm
17/10:30pm SSW 9-13 kts 15.8°c 1018.7 hPa 87% 1.4mm
17/10:00pm SSW 9-14 kts 15.8°c 1019.0 hPa 89% 1.4mm
17/09:30pm SSW 10-14 kts 15.8°c 1019.1 hPa 90% 1.2mm
17/09:00pm SW 9-13 kts 16.0°c 1019.5 hPa 90% 1.0mm
17/08:30pm SSW 12-17 kts 15.9°c 1019.4 hPa 89% 0.8mm
17/08:00pm SSW 13-22 kts 16.6°c 1019.5 hPa 88% 0.8mm
17/07:48pm SSW 12-18 kts 17.3°c 1019.3 hPa 86% 0.8mm
17/07:40pm S 13-20 kts 18.0°c 1019.1 hPa 85% 0.8mm
17/07:30pm S 15-20 kts 18.3°c 1018.8 hPa 82% 0.6mm
17/07:28pm SSE 14-20 kts 18.3°c 1018.8 hPa 82% 0.6mm
17/07:00pm S 8-11 kts 19.1°c 1018.3 hPa 90% 0.6mm
17/06:30pm SSW 7-9 kts 19.1°c 1017.8 hPa 89% 0.6mm
17/06:00pm S 9-14 kts 19.3°c 1017.3 hPa 87% 0.6mm
17/05:30pm S 7-9 kts 19.2°c 1017.4 hPa 87% 0.6mm
17/05:00pm S 5-8 kts 20.0°c 1017.2 hPa 85% 0.4mm
17/04:30pm SSE 5-7 kts 20.3°c 1016.9 hPa 82% 0.2mm
17/04:00pm SSW 6-9 kts 21.5°c 1016.9 hPa 74% 0.0mm
17/03:30pm SSE 6-8 kts 22.1°c 1016.5 hPa 73% 0.0mm
17/03:00pm SSW 4-6 kts 22.6°c 1016.2 hPa 69% 0.0mm
17/02:30pm SSW 4-5 kts 22.8°c 1016.3 hPa 67% 0.0mm
17/02:00pm SSE 4-6 kts 22.8°c 1016.5 hPa 67% 0.0mm
17/01:30pm S 5-7 kts 22.7°c 1016.7 hPa 67% 0.0mm
17/01:00pm S 5-7 kts 22.7°c 1016.9 hPa 64% 0.0mm
17/12:30pm S 6-8 kts 23.1°c 1017.1 hPa 66% 0.0mm
17/12:00pm SSE 5-7 kts 23.1°c 1017.4 hPa 66% 0.0mm
17/11:30am S 7-9 kts 23.0°c 1018.0 hPa 66% 0.0mm
17/11:00am S 7-9 kts 22.8°c 1018.4 hPa 64% 0.0mm
17/10:30am SSW 6-8 kts 22.4°c 1018.8 hPa 68% 0.0mm
17/10:00am SSW 6-10 kts 22.3°c 1019.2 hPa 70% 0.0mm
17/09:30am SW 6-8 kts 22.2°c 1019.3 hPa 67% 0.0mm
17/09:00am SSW 7-11 kts 21.5°c 1019.5 hPa 70% 0.0mm
17/08:30am SSW 7-8 kts 21.2°c 1019.3 hPa 71% 0.0mm
17/08:00am SSW 5-7 kts 21.4°c 1019.3 hPa 70% 0.0mm
17/07:30am SW 5-9 kts 20.8°c 1019.3 hPa 71% 0.0mm
17/07:00am SSW 7-10 kts 20.2°c 1018.8 hPa 73% 0.0mm
17/06:30am S 5-8 kts 19.7°c 1018.7 hPa 74% 0.0mm
17/06:00am SSW 6-9 kts 19.5°c 1018.6 hPa 74% 0.0mm
17/05:30am SSW 5-8 kts 19.5°c 1018.4 hPa 73% 0.0mm
17/05:00am SSW 5-8 kts 19.9°c 1018.3 hPa 72% 0.0mm
17/04:30am SW 5-6 kts 19.8°c 1018.3 hPa 74% 0.0mm
17/04:00am SSW 4-6 kts 19.9°c 1018.4 hPa 73% 0.0mm
17/03:30am SSW 5-7 kts 19.9°c 1018.4 hPa 73% 0.0mm
17/03:00am SSW 5-8 kts 20.1°c 1018.4 hPa 71% 0.0mm
17/02:30am SSW 7-9 kts 20.0°c 1018.6 hPa 71% 0.0mm
17/02:00am SSW 7-8 kts 19.9°c 1019.0 hPa 72% 0.0mm
17/01:30am SSW 6-10 kts 19.6°c 1019.1 hPa 72% 0.0mm
17/01:00am SSW 6-9 kts 19.6°c 1019.3 hPa 71% 0.0mm
17/12:30am SSW 6-9 kts 19.7°c 1019.5 hPa 71% 0.0mm
17/12:00am SSW 6-9 kts 19.7°c 1019.8 hPa 71% 0.0mm
Time Wind Speed Temp Pressure Rel. Hum Rain
16/11:30pm SSW 7-10 kts 20.2°c 1020.0 hPa 70% 0.0mm
16/11:00pm SSW 7-12 kts 20.2°c 1020.0 hPa 70% 0.0mm
16/10:30pm SSW 9-13 kts 20.7°c 1020.4 hPa 69% 0.0mm
16/10:00pm S 7-9 kts 20.8°c 1020.4 hPa 69% 0.0mm
16/09:30pm SSW 8-12 kts 21.2°c 1020.5 hPa 68% 0.0mm
16/09:00pm S 7-10 kts 21.0°c 1020.4 hPa 70% 0.0mm
16/08:30pm S 8-11 kts 21.1°c 1020.1 hPa 70% 0.0mm
16/08:00pm SSW 8-11 kts 20.9°c 1019.9 hPa 71% 0.0mm
16/07:30pm S 8-13 kts 21.1°c 1019.7 hPa 71% 0.0mm
16/07:00pm S 9-12 kts 21.3°c 1019.2 hPa 71% 0.0mm
16/06:30pm S 11-17 kts 21.8°c 1018.6 hPa 69% 0.0mm
16/06:00pm S 10-15 kts 22.1°c 1018.3 hPa 67% 0.0mm
16/05:30pm SSE 11-19 kts 22.3°c 1017.7 hPa 67% 0.0mm
16/05:00pm SSE 14-21 kts 23.1°c 1017.3 hPa 64% 0.0mm
16/04:30pm SSE 15-22 kts 23.7°c 1016.9 hPa 62% 0.0mm
16/04:00pm SSE 17-23 kts 24.2°c 1016.7 hPa 63% 0.0mm
16/03:30pm SSE 16-21 kts 24.9°c 1016.2 hPa 62% 0.0mm
16/03:00pm SSE 17-25 kts 25.3°c 1016.0 hPa 61% 0.0mm
16/02:30pm SSE 17-26 kts 25.7°c 1015.9 hPa 62% 0.0mm
16/02:00pm SE 19-25 kts 26.3°c 1015.7 hPa 61% 0.0mm
16/01:30pm SE 17-23 kts 26.3°c 1015.7 hPa 63% 0.0mm
16/01:00pm ESE 13-21 kts 26.6°c 1015.9 hPa 60% 0.0mm
16/12:30pm ESE 12-16 kts 26.5°c 1016.3 hPa 55% 0.0mm
16/12:00pm ESE 12-16 kts 25.5°c 1016.5 hPa 62% 0.0mm
16/11:30am ESE 13-18 kts 25.9°c 1016.8 hPa 63% 0.0mm
16/11:00am SE 8-11 kts 26.8°c 1016.9 hPa 50% 0.0mm
16/10:30am ENE 5-7 kts 26.0°c 1017.1 hPa 54% 0.0mm
16/10:00am SE 4-6 kts 26.1°c 1017.0 hPa 53% 0.0mm
16/09:30am WSW 4-6 kts 25.1°c 1017.2 hPa 56% 0.0mm
16/09:00am NNW 4-5 kts 24.3°c 1016.9 hPa 57% 0.0mm
16/08:30am NW 4-5 kts 23.0°c 1016.7 hPa 62% 0.0mm
16/08:00am WNW 5-7 kts 21.4°c 1016.7 hPa 68% 0.0mm
16/07:30am W 4-5 kts 19.2°c 1016.2 hPa 83% 0.0mm
16/07:00am CALM 0 kts 17.7°c 1015.9 hPa 86% 0.0mm
16/06:30am W 3-5 kts 16.5°c 1015.5 hPa 91% 0.0mm
16/06:00am W 4 kts 16.3°c 1015.4 hPa 91% 0.0mm
16/05:30am CALM 0-2 kts 16.8°c 1015.4 hPa 89% 0.0mm
16/05:00am WNW 4-5 kts 17.3°c 1015.1 hPa 83% 0.0mm
16/04:30am NW 4-5 kts 18.7°c 1014.8 hPa 79% 0.0mm
16/04:00am NNW 5-6 kts 18.5°c 1014.6 hPa 78% 0.0mm
16/03:30am CALM 0 kts 19.3°c 1014.5 hPa 78% 0.0mm
16/03:00am CALM 0-4 kts 18.3°c 1014.6 hPa 81% 0.0mm
16/02:30am WNW 5-6 kts 18.7°c 1014.7 hPa 80% 0.0mm
16/02:00am NW 5-6 kts 18.4°c 1014.7 hPa 83% 0.0mm
16/01:30am NW 3-4 kts 17.5°c 1015.0 hPa 85% 0.0mm
16/01:00am NW 4-6 kts 18.7°c 1015.3 hPa 78% 0.0mm
16/12:30am NW 4-5 kts 19.1°c 1015.5 hPa 77% 0.0mm
16/12:00am NW 5-6 kts 19.7°c 1015.6 hPa 76% 0.0mm